Weather History for Kansas City, MO

Change the Weather History Date:

Saturday, April 27, 2013

  Actual Average Record
Temperature  
Mean Temperature 52 °F -  
Max Temperature 55 °F 67 °F 86 °F (2001)
Min Temperature 48 °F 48 °F 39 °F (2005)
Degree Days  
Heating Degree Days 14    
Growing Degree Days 2 (Base 50)    
Moisture  
Dew Point 47 °F    
Average Humidity 85    
Maximum Humidity 93    
Minimum Humidity 72    
Precipitation  
Precipitation 0.10 in - - ()
Sea Level Pressure  
Sea Level Pressure 30.11 in    
Wind  
Wind Speed 5 mph (ENE)    
Max Wind Speed 9 mph    
Max Gust Speed -    
Visibility 9 miles    
Events Rain    
Averages and records for this station are not official NWS values.
T = Trace of Precipitation, MM = Missing Value Source: NWS Daily Summary

Daily Weather History Graph

Daily Weather History Graph

Search for Another Location

Airport:

Trip Planner

Search our weather history database for the weather conditions in past years. The results will help you decide how hot, cold, wet, or windy it might be!

Date:

Astronomy

Apr. 27, 2013 Rise Set
Actual Time 6:24 AM CDT 8:07 PM CDT
Civil Twilight 5:56 AM CDT 8:36 PM CDT
Nautical Twilight 5:21 AM CDT 9:11 PM CDT
Astronomical Twilight 4:44 AM CDT 9:48 PM CDT
Moon 10:37 PM CDT (4/27) 7:44 AM CDT (4/27)
Length of Visible Light 14h 40m
Length of Day
13h 42m
Waning Gibbous, 95% of the Moon is Illuminated
Apr 27
Waning Gibbous
May 2
Last Quarter
May 9
New
May 17
First Quarter
May 24
Full

Hourly Weather History & Observations

Time (CDT) Temp. Dew Point Humidity Pressure Visibility Wind Dir Wind Speed Gust Speed Precip Events Conditions
12:05 AM 50.0 °F 46.4 °F 87% 30.21 in 10.0 mi East 5.8 mph - N/A   Overcast
12:27 AM 50.0 °F 46.4 °F 87% 30.20 in 10.0 mi East 5.8 mph - N/A   Overcast
12:52 AM 50.0 °F 46.4 °F 87% 30.21 in 7.0 mi Variable 4.6 mph - 0.00 in Rain Light Rain
12:54 AM 50.0 °F 46.0 °F 86% 30.21 in 6.0 mi East 5.8 mph - 0.01 in Rain Light Rain
1:34 AM 48.2 °F 46.4 °F 93% 30.19 in 9.0 mi East 5.8 mph - 0.01 in Rain Light Rain
1:54 AM 48.9 °F 46.0 °F 90% 30.19 in 9.0 mi East 5.8 mph - 0.01 in Rain Light Rain
2:54 AM 48.9 °F 46.0 °F 90% 30.16 in 8.0 mi ENE 6.9 mph - 0.01 in Rain Light Rain
3:54 AM 48.9 °F 46.0 °F 90% 30.14 in 6.0 mi East 5.8 mph - 0.00 in Rain Light Rain
4:54 AM 48.9 °F 46.0 °F 90% 30.13 in 10.0 mi ENE 6.9 mph - 0.01 in Rain Light Rain
5:54 AM 48.9 °F 46.0 °F 90% 30.13 in 6.0 mi ENE 5.8 mph - 0.02 in Rain Light Rain
6:54 AM 48.9 °F 46.0 °F 90% 30.14 in 4.0 mi ENE 5.8 mph - 0.04 in Rain Light Rain
7:54 AM 48.9 °F 46.9 °F 93% 30.14 in 10.0 mi NE 4.6 mph - 0.00 in Rain Light Rain
8:54 AM 50.0 °F 46.0 °F 86% 30.14 in 10.0 mi ENE 5.8 mph - 0.00 in Rain Light Rain
9:09 AM 50.0 °F 46.4 °F 87% 30.13 in 10.0 mi ENE 6.9 mph - 0.00 in Rain Light Rain
9:39 AM 51.8 °F 46.4 °F 82% 30.12 in 10.0 mi ENE 9.2 mph - 0.00 in Rain Light Rain
9:54 AM 51.1 °F 46.9 °F 86% 30.12 in 10.0 mi ENE 8.1 mph - 0.00 in   Overcast
10:29 AM 51.8 °F 48.2 °F 88% 30.12 in 10.0 mi ENE 9.2 mph - N/A   Overcast
10:54 AM 51.1 °F 46.9 °F 86% 30.13 in 10.0 mi East 9.2 mph - N/A   Overcast
11:54 AM 52.0 °F 46.9 °F 83% 30.13 in 10.0 mi NE 9.2 mph - N/A   Overcast
12:54 PM 53.1 °F 48.0 °F 83% 30.11 in 10.0 mi NE 5.8 mph - 0.00 in   Overcast
1:54 PM 53.1 °F 46.9 °F 80% 30.10 in 10.0 mi NE 5.8 mph - N/A   Overcast
2:54 PM 54.0 °F 46.9 °F 77% 30.09 in 10.0 mi Calm Calm - N/A   Overcast
3:35 PM 53.6 °F 48.2 °F 82% 30.08 in 10.0 mi East 4.6 mph - N/A   Overcast
3:54 PM 54.0 °F 46.9 °F 77% 30.07 in 10.0 mi SE 3.5 mph - N/A   Overcast
4:54 PM 55.9 °F 48.0 °F 75% 30.05 in 10.0 mi Calm Calm - N/A   Overcast
5:54 PM 55.9 °F 46.9 °F 72% 30.04 in 10.0 mi Calm Calm - N/A   Overcast
6:54 PM 55.0 °F 48.0 °F 77% 30.04 in 10.0 mi Calm Calm - N/A   Overcast
7:54 PM 55.0 °F 48.0 °F 77% 30.03 in 10.0 mi Calm Calm - N/A   Overcast
8:54 PM 54.0 °F 48.0 °F 80% 30.02 in 10.0 mi Calm Calm - N/A   Overcast
9:54 PM 53.1 °F 48.0 °F 83% 30.03 in 10.0 mi East 3.5 mph - N/A   Overcast
10:21 PM 51.8 °F 46.4 °F 82% 30.02 in 10.0 mi Calm Calm - N/A   Scattered Clouds
10:54 PM 51.1 °F 46.9 °F 86% 30.02 in 10.0 mi SW 4.6 mph - N/A   Clear
11:54 PM 48.9 °F 46.0 °F 90% 30.01 in 8.0 mi Calm Calm - N/A   Clear